OBJECT H, 44886

Orbit data source: Space-Track

You're viewing an Uncataloged Satellite

Recently launched and/or uncataloged satellites may have evolving metadata. Metadata may include but not limited to: Owner, Maufacturer, Bus, Motor, and Mission.

OBJECT H, 44886 is a satellite in SSO that was launched on Fri, 20 Dec 2019 UTC via a CHANG ZHENG 4B launch vehicle from the Taiyaun Space Center, China (TSC). Unknown objects in Earth's orbit typically refer to objects detected orbiting the Earth but have not yet been identified or cataloged. These objects could be anything from previously untracked satellites, spent rocket stages, debris from satellite collisions, or even natural meteoroids temporarily captured by Earth's gravity.

Loading next visibility...
Identifier
44886, 2019-093H
Orbit
SSO
Country
Flag of TBDTBD
Related business
None
Manufacturer
Weina
Mission
Operational Commercial Imaging
Bus & Motor
MN50, Unknown motor
Mass
72 kg wet, 72 kg dry
Launch date (UTC)
2019-12-20 (6 years ago)
Launch vehicle
CHANG ZHENG 4B
Launch site
Taiyaun Space Center, China (TSC)
Object type
Unknown
Shape & HBR
Box + 2 Pan, Unknown HBR
Radar Cross Section
0.195 m², Medium (>0.1 m² and < 1m²)

Expand to show TLE details & history
Last TLE update: 12 hours ago

TLE from 12 hours ago
0 OBJECT H
1 44886U 19093H   25261.26567961  .00002989  00000-0  29249-3 0  9997
2 44886  97.8173 345.9969 0010979 246.3895 113.6172 14.93037566311577
Epoch: 2025-09-18T06:22Z
TLE epoch observation values (Epoch: 2025-09-18T06:22:34.718Z)
Latitude
Longitude
-107.07751°
Altitude
594.584 km
Speed
7.561 km/s
True Right ascension
23h 03m 59s
True Declination
0° 00' 00"
Sunlit
Object was in full shadow at epoch
Visualization orbit readout
Latitude
Unknown
Longitude
Unknown
Altitude
Unknown
Speed
Unknown
Apparent Right ascension
Unknown
Apparent Declination
Unknown
Sunlit
N/A
Visualization observer readout
Local Sidereal Time
11:34:24
Azimuth
Unknown
Elevation
Unknown
Doppler factor
Unknown
Orbital elements
Apogee altitude
593.136 km
Perigee altitude
577.845 km
Semi-major axis
6,963.627 km
Eccentricity
0.0011
Inclination
97.8173°
RAAN
345.9969°
Arg. of periapsis
246.3895°
True anomaly
113.73241°
Mean anomaly
113.6172°
Eccentric anomaly
113.67481°
Mean motion
3.73499 °/min
Orbital period
96.39 mins
BSTAR
0.00029249
Loading maneuver chart data...
Computing Atmospheric mass density...
Loading historical data...
Loading historical data...
Loading historical data...
Loading historical data...
Loading historical data...
Loading historical data...
Loading historical data...

Documentation

Showing up to 5 results
|